Weather History for Tehachapi, CA

Change the Weather History Date:

Tuesday, April 30, 2013

  Actual Average Record
Temperature  
Mean Temperature 63 °F -  
Max Temperature 73 °F 67 °F 73 °F (2012)
Min Temperature 53 °F 40 °F 41 °F (2012)
Degree Days  
Heating Degree Days 2    
Growing Degree Days 13 (Base 50)    
Moisture  
Dew Point 40 °F    
Average Humidity 41    
Maximum Humidity 62    
Minimum Humidity 27    
Precipitation  
Precipitation 0.00 in - - ()
Sea Level Pressure  
Sea Level Pressure 29.88 in    
Wind  
Wind Speed 14 mph (WNW)    
Max Wind Speed 26 mph    
Max Gust Speed 33 mph    
Visibility 10 miles    
Events      
Averages and records for this station are not official NWS values.
T = Trace of Precipitation, MM = Missing Value Source: NWS Daily Summary

Daily Weather History Graph

Daily Weather History Graph

Search for Another Location

Airport:

Trip Planner

Search our weather history database for the weather conditions in past years. The results will help you decide how hot, cold, wet, or windy it might be!

Date:

Astronomy

Apr. 30, 2013 Rise Set
Actual Time 6:03 AM PDT 7:38 PM PDT
Civil Twilight 5:36 AM PDT 8:06 PM PDT
Nautical Twilight 5:03 AM PDT 8:38 PM PDT
Astronomical Twilight 4:29 AM PDT 9:13 PM PDT
Moon 12:03 AM PDT (4/30) 10:39 AM PDT (4/30)
Length of Visible Light 14h 29m
Length of Day
13h 35m
Waning Gibbous, 69% of the Moon is Illuminated
Apr 30
Waning Gibbous
May 2
Last Quarter
May 9
New
May 17
First Quarter
May 24
Full

Hourly Weather History & Observations

Time (PDT) Temp. Dew Point Humidity Pressure Visibility Wind Dir Wind Speed Gust Speed Precip Events Conditions
12:15 AM 62.6 °F 41.0 °F 45% 29.92 in 10.0 mi WNW 11.5 mph - N/A   Clear
12:35 AM 62.6 °F 41.0 °F 45% 29.92 in 10.0 mi WNW 12.7 mph - N/A   Clear
12:55 AM 60.8 °F 41.0 °F 48% 29.91 in 10.0 mi WNW 12.7 mph - N/A   Clear
1:15 AM 62.6 °F 41.0 °F 45% 29.91 in 10.0 mi WNW 12.7 mph - N/A   Clear
1:35 AM 60.8 °F 42.8 °F 52% 29.90 in 10.0 mi WNW 9.2 mph - N/A   Clear
1:55 AM 60.8 °F 41.0 °F 48% 29.90 in 10.0 mi West 11.5 mph 16.1 mph N/A   Clear
2:15 AM 59.0 °F 42.8 °F 55% 29.89 in 10.0 mi West 10.4 mph - N/A   Clear
2:35 AM 59.0 °F 42.8 °F 55% 29.88 in 10.0 mi West 10.4 mph - N/A   Clear
2:55 AM 59.0 °F 42.8 °F 55% 29.88 in 10.0 mi West 12.7 mph - N/A   Clear
3:15 AM 59.0 °F 42.8 °F 55% 29.88 in 10.0 mi West 12.7 mph - N/A   Clear
3:35 AM 60.8 °F 41.0 °F 48% 29.88 in 10.0 mi West 12.7 mph - N/A   Clear
3:55 AM 60.8 °F 41.0 °F 48% 29.87 in 10.0 mi West 12.7 mph - N/A   Clear
4:15 AM 59.0 °F 41.0 °F 51% 29.87 in 10.0 mi WNW 12.7 mph - N/A   Clear
4:35 AM 59.0 °F 41.0 °F 51% 29.87 in 10.0 mi West 12.7 mph - N/A   Clear
4:55 AM 57.2 °F 41.0 °F 55% 29.87 in 10.0 mi West 11.5 mph - N/A   Clear
5:15 AM 55.4 °F 41.0 °F 58% 29.87 in 10.0 mi West 10.4 mph - N/A   Clear
5:35 AM 53.6 °F 41.0 °F 62% 29.87 in 10.0 mi West 9.2 mph - N/A   Clear
5:55 AM 53.6 °F 41.0 °F 62% 29.87 in 10.0 mi West 8.1 mph - N/A   Clear
6:15 AM 53.6 °F 41.0 °F 62% 29.88 in 10.0 mi West 8.1 mph - N/A   Clear
6:35 AM 55.4 °F 41.0 °F 58% 29.89 in 10.0 mi West 9.2 mph - N/A   Clear
6:55 AM 57.2 °F 39.2 °F 51% 29.89 in 10.0 mi West 6.9 mph - N/A   Clear
7:15 AM 60.8 °F 39.2 °F 45% 29.89 in 10.0 mi NW 5.8 mph - N/A   Clear
7:35 AM 62.6 °F 39.2 °F 42% 29.89 in 10.0 mi NW 6.9 mph - N/A   Clear
7:55 AM 64.4 °F 37.4 °F 37% 29.89 in 10.0 mi WNW 5.8 mph - N/A   Clear
8:15 AM 64.4 °F 37.4 °F 37% 29.89 in 10.0 mi WNW 8.1 mph - N/A   Clear
8:35 AM 66.2 °F 37.4 °F 35% 29.89 in 10.0 mi NW 6.9 mph 20.7 mph N/A   Clear
8:55 AM 68.0 °F 37.4 °F 33% 29.89 in 10.0 mi NW 11.5 mph 18.4 mph N/A   Clear
9:15 AM 68.0 °F 37.4 °F 33% 29.89 in 10.0 mi NW 12.7 mph 17.3 mph N/A   Clear
9:35 AM 68.0 °F 39.2 °F 35% 29.88 in 10.0 mi NW 16.1 mph - N/A   Clear
9:55 AM 68.0 °F 39.2 °F 35% 29.89 in 10.0 mi NW 15.0 mph 21.9 mph N/A   Clear
10:15 AM 69.8 °F 39.2 °F 33% 29.89 in 10.0 mi NW 15.0 mph 23.0 mph N/A   Clear
10:35 AM 69.8 °F 41.0 °F 35% 29.90 in 9.0 mi NW 18.4 mph 24.2 mph N/A   Clear
10:55 AM 69.8 °F 41.0 °F 35% 29.91 in 10.0 mi WNW 13.8 mph 23.0 mph N/A   Clear
11:15 AM 69.8 °F 41.0 °F 35% 29.91 in 9.0 mi WNW 19.6 mph 23.0 mph N/A   Clear
11:35 AM 69.8 °F 41.0 °F 35% 29.91 in 10.0 mi NW 16.1 mph 25.3 mph N/A   Clear
11:55 AM 71.6 °F 39.2 °F 31% 29.90 in 10.0 mi NW 17.3 mph 24.2 mph N/A   Clear
12:15 PM 71.6 °F 39.2 °F 31% 29.90 in 9.0 mi NW 15.0 mph 23.0 mph N/A   Clear
12:35 PM 71.6 °F 39.2 °F 31% 29.90 in 10.0 mi NW 18.4 mph - N/A   Clear
12:55 PM 71.6 °F 39.2 °F 31% 29.89 in 10.0 mi NW 15.0 mph 23.0 mph N/A   Clear
1:15 PM 73.4 °F 39.2 °F 29% 29.89 in 10.0 mi NW 18.4 mph 23.0 mph N/A   Clear
1:35 PM 73.4 °F 39.2 °F 29% 29.88 in 10.0 mi NW 15.0 mph 20.7 mph N/A   Clear
1:55 PM 73.4 °F 39.2 °F 29% 29.87 in 10.0 mi NW 17.3 mph 24.2 mph N/A   Clear
2:15 PM 73.4 °F 37.4 °F 27% 29.87 in 10.0 mi NW 21.9 mph - N/A   Clear
2:35 PM 73.4 °F 39.2 °F 29% 29.86 in 10.0 mi NW 19.6 mph 28.8 mph N/A   Clear
2:55 PM 73.4 °F 39.2 °F 29% 29.85 in 10.0 mi NW 16.1 mph 25.3 mph N/A   Clear
3:15 PM 73.4 °F 39.2 °F 29% 29.85 in 10.0 mi NW 23.0 mph 29.9 mph N/A   Clear
3:35 PM 73.4 °F 41.0 °F 31% 29.85 in 10.0 mi NW 24.2 mph 32.2 mph N/A   Clear
3:55 PM 71.6 °F 41.0 °F 33% 29.84 in 10.0 mi NW 24.2 mph 33.4 mph N/A   Clear
4:15 PM 71.6 °F 41.0 °F 33% 29.85 in 10.0 mi NW 26.5 mph 31.1 mph N/A   Clear
4:35 PM 71.6 °F 41.0 °F 33% 29.85 in 10.0 mi NW 25.3 mph 29.9 mph N/A   Clear
4:55 PM 71.6 °F 41.0 °F 33% 29.84 in 10.0 mi NW 23.0 mph 33.4 mph N/A   Clear
5:15 PM 71.6 °F 41.0 °F 33% 29.84 in 10.0 mi NW 25.3 mph 32.2 mph N/A   Clear
5:35 PM 69.8 °F 39.2 °F 33% 29.85 in 10.0 mi NW 23.0 mph 33.4 mph N/A   Clear
5:55 PM 68.0 °F 39.2 °F 35% 29.85 in 9.0 mi WNW 21.9 mph 28.8 mph N/A   Clear
6:15 PM 68.0 °F 39.2 °F 35% 29.86 in 10.0 mi NW 21.9 mph 29.9 mph N/A   Clear
6:35 PM 66.2 °F 39.2 °F 37% 29.85 in 10.0 mi NW 23.0 mph 31.1 mph N/A   Clear
6:55 PM 66.2 °F 41.0 °F 40% 29.85 in 10.0 mi WNW 19.6 mph 27.6 mph N/A   Clear
7:15 PM 66.2 °F 41.0 °F 40% 29.85 in 10.0 mi WNW 21.9 mph 28.8 mph N/A   Clear
7:35 PM 64.4 °F 39.2 °F 40% 29.86 in 10.0 mi WNW 16.1 mph 28.8 mph N/A   Clear
7:55 PM 64.4 °F 39.2 °F 40% 29.87 in 10.0 mi WNW 16.1 mph 24.2 mph N/A   Clear
8:15 PM 62.6 °F 39.2 °F 42% 29.86 in 10.0 mi West 20.7 mph 26.5 mph N/A   Clear
8:35 PM 62.6 °F 39.2 °F 42% 29.88 in 10.0 mi WNW 16.1 mph 24.2 mph N/A   Clear
8:55 PM 62.6 °F 41.0 °F 45% 29.89 in 10.0 mi WNW 16.1 mph - N/A   Clear
9:15 PM 62.6 °F 41.0 °F 45% 29.90 in 10.0 mi WNW 17.3 mph - N/A   Clear
9:35 PM 62.6 °F 41.0 °F 45% 29.91 in 10.0 mi West 17.3 mph 25.3 mph N/A   Clear
9:55 PM 60.8 °F 39.2 °F 45% 29.91 in 10.0 mi West 17.3 mph - N/A   Clear
10:15 PM 60.8 °F 39.2 °F 45% 29.92 in 10.0 mi WNW 18.4 mph 24.2 mph N/A   Clear
10:35 PM 60.8 °F 37.4 °F 42% 29.92 in 10.0 mi West 17.3 mph - N/A   Clear
10:55 PM 60.8 °F 35.6 °F 39% 29.92 in 10.0 mi West 15.0 mph 23.0 mph N/A   Clear
11:15 PM 59.0 °F 33.8 °F 39% 29.92 in 10.0 mi WNW 12.7 mph - N/A   Clear
11:35 PM 57.2 °F 35.6 °F 44% 29.93 in 10.0 mi WNW 15.0 mph - N/A   Clear
11:55 PM 57.2 °F 33.8 °F 41% 29.94 in 10.0 mi West 15.0 mph 20.7 mph N/A   Clear